User: anonymous
Location: Hiram
(41.3130°N, 81.1440°W)
Time: 20:16:50
(UTC-04:00)
Language:

Iridium 62 - Orbit

View from above orbital plane
View from above orbital plane
View from above satellite
View from above satellite

Ground track
Ground track

The orbit data is extracted from the following two-line orbital elements,

1 25285U 98021A   14204.42991029  .00000205  00000-0  66292-4 0  8567
2 25285 086.3990 306.8787 0002256 112.5021 247.6414 14.34213837853128
Epoch (UTC): 23 July 2014 10:19:04
Eccentricity: 0.0002256
inclination: 86.3990°
perigee height: 776 km
apogee height: 779 km
right ascension of ascending node: 306.8787°
argument of perigee: 112.5021°
revolutions per day: 14.34213837
mean anomaly at epoch: 247.6414°
orbit number at epoch: 85312

The dashed part of the orbit path shows where the satellite is in the earth's shadow,  

DLR